Regional Weather Roundup
Issued by NWS

Home | Current Version | Previous Version | Graphics & Text | Print | Product List | Glossary On
Versions: 1 2 3 4 5 6 7 8 9 10 11 12 13 14 15 16 17 18 19 20 21 22 23 24 25 26 27 28 29 30 31 32 33 34 35 36 37 38 39 40 41 42 43 44 45 46 47 48 49 50
000
ASUS45 KBOI 030310
RWRID
WEATHER ROUNDUP FOR IDAHO
NATIONAL WEATHER SERVICE BOISE ID
900 PM MDT SAT MAY 02 2015

NOTE: "FAIR" INDICATES FEW OR NO CLOUDS BELOW 12000 FEET
WITH NO SIGNIFICANT WEATHER AND/OR OBSTRUCTIONS TO VISIBILITY

IDZ012-014-030400-
SOUTHWEST IDAHO


CITY           SKY/WX    TMP DP  RH WIND       PRES   REMARKS
BOISE          PTCLDY    73  26  17 W6        29.75R
CALDWELL       PTCLDY    70  34  26 NW5       29.77R
MOUNTAIN HOME  PTCLDY    69  30  23 NW10      29.75R
$$

IDZ016-017-030400-
SOUTHCENTRAL IDAHO


CITY           SKY/WX    TMP DP  RH WIND       PRES   REMARKS
BURLEY         PTCLDY    62  33  33 W6        29.80R
JEROME         CLEAR     67  28  23 SW7       29.81R
TWIN FALLS     PTCLDY    64  29  26 W8        29.82R
$$

IDZ019>023-030400-
SOUTHEAST IDAHO


CITY           SKY/WX    TMP DP  RH WIND       PRES   REMARKS
IDAHO FALLS    CLEAR     67  25  20 SW14      29.80R
POCATELLO      PTCLDY    66  31  27 SW12      29.82R
REXBURG        PTCLDY    65  24  21 SW12      29.77R
$$

IDZ006-010-011-018-031-032-030400-
CENTRAL IDAHO MOUNTAINS


CITY           SKY/WX    TMP DP  RH WIND       PRES   REMARKS
MCCALL         CLEAR     57  30  35 W3        29.86S
HAILEY         PTCLDY    63  27  25 NW8       29.86R
STANLEY          N/A     50  19  29 W3        29.94R
SALMON         PTCLDY    63  28  27 NE8       29.81R
CHALLIS        PTCLDY    64  13  13 W9        29.84R
$$

IDZ002-004-006-007-026-030400-
NORTHERN IDAHO


CITY           SKY/WX    TMP DP  RH WIND       PRES   REMARKS
LEWISTON       CLEAR     63  25  23 NW5       29.88S
LOWELL           N/A     55  39  54 CALM      29.88R
COEUR D`ALENE  CLEAR     54  27  35 N7        29.91R
MULLAN PASS    CLEAR     40  19  43 NW5       29.95R
$$



USA.gov is the U.S. government's official web portal to all federal, state and local government web resources and services.